| time (UTC) | temp F | wind direction | speed knots | gust knots | rain 1hr in | rain 24hr in | rain mn in | humidity % | barometer mb |
| 20260508033315 | 50 | 205 | 2.6 | 4.3 | 0.00 | 0.00 | 0.00 | 70 | 1012.1 |
| 20260508032815 | 50 | 211 | 0.9 | 3.5 | 0.00 | 0.00 | 0.00 | 71 | 1012.3 |
| 20260508032315 | 50 | 199 | 2.6 | 2.6 | 0.00 | 0.00 | 0.00 | 73 | 1012.3 |
| 20260508031815 | 50 | 199 | 0.0 | 2.6 | 0.00 | 0.00 | 0.00 | 72 | 1012.4 |
| 20260508030814 | 50 | 211 | 0.0 | 2.6 | 0.00 | 0.00 | 0.00 | 72 | 1012.4 |
| 20260508030314 | 49 | 210 | 0.0 | 2.6 | 0.00 | 0.00 | 0.00 | 75 | 1012.4 |
| 20260508025815 | 49 | 210 | 1.7 | 2.6 | 0.00 | 0.00 | 0.00 | 77 | 1012.2 |
| 20260508025314 | 49 | 210 | 0.0 | 0.0 | 0.00 | 0.00 | 0.00 | 77 | 1012.3 |
| 20260508024814 | 50 | 210 | 0.0 | 0.0 | 0.00 | 0.00 | 0.00 | 74 | 1012.3 |
| 20260508024313 | 50 | 210 | 0.0 | 0.9 | 0.00 | 0.00 | 0.00 | 72 | 1012.3 |
| 20260508022313 | 52 | 211 | 0.0 | 1.7 | 0.00 | 0.00 | 0.00 | 68 | 1012.4 |
| 20260508021813 | 52 | 210 | 0.0 | 1.7 | 0.00 | 0.00 | 0.00 | 68 | 1012.4 |
| 20260508021313 | 51 | 211 | 0.0 | 1.7 | 0.00 | 0.00 | 0.00 | 69 | 1012.2 |
| 20260508020813 | 50 | 210 | 0.0 | 0.9 | 0.00 | 0.00 | 0.00 | 71 | 1012.2 |
| 20260508020612 | 50 | 0 | 0.0 | 0.0 | 0.00 | 0.00 | 0.00 | 75 | 1012.2 |
| 20260508015822 | 49 | 213 | 0.0 | 0.0 | 0.00 | 0.00 | 0.00 | 76 | 1012.1 |
| 20260508015322 | 49 | 213 | 0.0 | 0.0 | 0.00 | 0.00 | 0.00 | 74 | 1012.0 |
| 20260508014822 | 49 | 213 | 0.0 | 0.0 | 0.00 | 0.00 | 0.00 | 76 | 1012.0 |
| 20260508014321 | 49 | 213 | 0.0 | 0.0 | 0.00 | 0.00 | 0.00 | 78 | 1011.9 |
| 20260508013821 | 50 | 213 | 0.0 | 0.0 | 0.00 | 0.00 | 0.00 | 78 | 1012.1 |
| 20260508013321 | 51 | 213 | 0.0 | 0.0 | 0.00 | 0.00 | 0.00 | 74 | 1012.1 |
| 20260508012821 | 50 | 213 | 0.0 | 0.0 | 0.00 | 0.00 | 0.00 | 73 | 1011.9 |
| 20260508012321 | 51 | 213 | 0.0 | 0.0 | 0.00 | 0.00 | 0.00 | 75 | 1012.0 |
| 20260508011320 | 51 | 213 | 0.0 | 0.0 | 0.00 | 0.00 | 0.00 | 72 | 1012.0 |
| 20260508010821 | 51 | 213 | 0.0 | 0.0 | 0.00 | 0.00 | 0.00 | 70 | 1012.1 |
| 20260508010320 | 51 | 213 | 0.0 | 0.0 | 0.00 | 0.00 | 0.00 | 71 | 1012.0 |
| 20260508005320 | 52 | 213 | 0.0 | 0.0 | 0.00 | 0.00 | 0.00 | 68 | 1011.9 |
| 20260508004820 | 53 | 213 | 0.0 | 0.0 | 0.00 | 0.00 | 0.00 | 64 | 1012.0 |
| 20260508004320 | 53 | 213 | 0.0 | 1.7 | 0.00 | 0.00 | 0.00 | 65 | 1012.1 |
| 20260508003820 | 53 | 213 | 0.0 | 2.6 | 0.00 | 0.00 | 0.00 | 70 | 1012.1 |
| 20260508003319 | 52 | 135 | 1.7 | 2.6 | 0.00 | 0.00 | 0.00 | 68 | 1012.1 |
| 20260508002319 | 52 | 195 | 0.0 | 0.0 | 0.00 | 0.00 | 0.00 | 71 | 1012.0 |
| 20260508001819 | 52 | 195 | 0.0 | 0.0 | 0.00 | 0.00 | 0.00 | 71 | 1012.0 |
| 20260508000819 | 53 | 236 | 0.0 | 0.9 | 0.00 | 0.00 | 0.00 | 65 | 1012.0 |
| 20260508000320 | 53 | 219 | 0.0 | 0.0 | 0.00 | 0.00 | 0.00 | 65 | 1011.9 |
| 20260507234819 | 55 | 219 | 0.0 | 1.7 | 0.00 | 0.00 | 0.00 | 60 | 1011.7 |
| 20260507234318 | 57 | 219 | 0.0 | 1.7 | 0.00 | 0.00 | 0.00 | 54 | 1011.6 |
| 20260507233317 | 58 | 180 | 0.9 | 5.2 | 0.00 | 0.00 | 0.00 | 48 | 1011.6 |
| 20260507232818 | 58 | 234 | 0.0 | 5.2 | 0.00 | 0.00 | 0.00 | 49 | 1011.6 |
| 20260507231817 | 59 | 206 | 2.6 | 4.3 | 0.00 | 0.00 | 0.00 | 46 | 1011.8 |
| 20260507231317 | 59 | 182 | 0.9 | 3.5 | 0.00 | 0.00 | 0.00 | 47 | 1011.8 |
| 20260507230817 | 59 | 221 | 1.7 | 3.5 | 0.00 | 0.00 | 0.00 | 45 | 1011.7 |
| 20260507230316 | 58 | 252 | 1.7 | 3.5 | 0.00 | 0.00 | 0.00 | 52 | 1011.8 |
| 20260507225816 | 57 | 246 | 0.0 | 5.2 | 0.00 | 0.00 | 0.00 | 51 | 1011.6 |
| 20260507224816 | 60 | 198 | 5.2 | 5.2 | 0.00 | 0.00 | 0.00 | 47 | 1011.6 |
| 20260507224316 | 60 | 279 | 2.6 | 5.2 | 0.00 | 0.00 | 0.00 | 50 | 1011.6 |
| 20260507223315 | 59 | 34 | 0.0 | 6.1 | 0.00 | 0.00 | 0.00 | 44 | 1011.5 |
| 20260507222816 | 58 | 204 | 0.0 | 1.7 | 0.00 | 0.00 | 0.00 | 46 | 1011.5 |
| 20260507222315 | 59 | 200 | 0.0 | 5.2 | 0.00 | 0.00 | 0.00 | 49 | 1011.6 |
| 20260507221816 | 58 | 200 | 0.0 | 5.2 | 0.00 | 0.00 | 0.00 | 45 | 1011.7 |
| 20260507220815 | 58 | 125 | 0.0 | 5.2 | 0.00 | 0.00 | 0.00 | 54 | 1011.7 |
| 20260507220315 | 58 | 274 | 0.0 | 6.1 | 0.00 | 0.00 | 0.00 | 48 | 1011.8 |
| 20260507215815 | 60 | 293 | 1.7 | 6.1 | 0.00 | 0.00 | 0.00 | 40 | 1011.9 |
| 20260507215315 | 60 | 131 | 0.0 | 6.1 | 0.00 | 0.00 | 0.00 | 44 | 1011.9 |
| 20260507214814 | 60 | 86 | 0.9 | 6.1 | 0.00 | 0.00 | 0.00 | 45 | 1011.8 |
| 20260507213814 | 59 | 321 | 0.9 | 4.3 | 0.00 | 0.00 | 0.00 | 43 | 1011.7 |
| 20260507212814 | 60 | 261 | 0.9 | 6.1 | 0.00 | 0.00 | 0.00 | 41 | 1011.9 |
| 20260507212314 | 61 | 193 | 0.0 | 10.4 | 0.00 | 0.00 | 0.00 | 48 | 1012.0 |
| 20260507210813 | 59 | 348 | 5.2 | 5.2 | 0.00 | 0.00 | 0.00 | 50 | 1011.9 |
| 20260507210314 | 60 | 250 | 0.9 | 3.5 | 0.00 | 0.00 | 0.00 | 45 | 1012.1 |
| 20260507205813 | 59 | 5 | 0.0 | 6.1 | 0.00 | 0.00 | 0.00 | 55 | 1012.1 |
| 20260507205313 | 59 | 355 | 0.9 | 9.6 | 0.00 | 0.00 | 0.00 | 49 | 1012.2 |
| 20260507204313 | 59 | 321 | 0.9 | 11.3 | 0.00 | 0.00 | 0.00 | 44 | 1012.2 |
| 20260507203812 | 60 | 319 | 2.6 | 11.3 | 0.00 | 0.00 | 0.00 | 44 | 1012.1 |
| 20260507203312 | 59 | 325 | 4.3 | 9.6 | 0.00 | 0.00 | 0.00 | 45 | 1012.0 |
| 20260507202812 | 59 | 342 | 4.3 | 9.6 | 0.00 | 0.00 | 0.00 | 45 | 1012.1 |
| 20260507202311 | 60 | 302 | 4.3 | 9.6 | 0.00 | 0.00 | 0.00 | 44 | 1012.0 |
| 20260507201812 | 59 | 281 | 1.7 | 15.6 | 0.00 | 0.00 | 0.00 | 47 | 1012.0 |
| 20260507201311 | 60 | 292 | 4.3 | 15.6 | 0.00 | 0.00 | 0.00 | 42 | 1012.1 |
| 20260507200811 | 61 | 317 | 8.7 | 13.9 | 0.00 | 0.00 | 0.00 | 47 | 1012.0 |
| 20260507200311 | 60 | 186 | 1.7 | 9.6 | 0.00 | 0.00 | 0.00 | 42 | 1012.1 |
| 20260507195811 | 59 | 339 | 6.1 | 9.6 | 0.00 | 0.00 | 0.00 | 47 | 1012.1 |
| 20260507195311 | 59 | 340 | 1.7 | 11.3 | 0.00 | 0.00 | 0.00 | 45 | 1012.0 |
| 20260507194810 | 59 | 271 | 7.8 | 12.2 | 0.00 | 0.00 | 0.00 | 45 | 1012.3 |
| 20260507194310 | 59 | 325 | 7.8 | 12.2 | 0.00 | 0.00 | 0.00 | 49 | 1012.4 |
| 20260507193810 | 59 | 351 | 4.3 | 8.7 | 0.00 | 0.00 | 0.00 | 46 | 1012.5 |
| 20260507193311 | 59 | 308 | 4.3 | 8.7 | 0.00 | 0.00 | 0.00 | 43 | 1012.5 |
| 20260507192310 | 58 | 355 | 4.3 | 13.0 | 0.00 | 0.00 | 0.00 | 48 | 1012.5 |
| 20260507191810 | 58 | 360 | 10.4 | 11.3 | 0.00 | 0.00 | 0.00 | 46 | 1012.6 |
| 20260507190809 | 59 | 304 | 0.9 | 10.4 | 0.00 | 0.00 | 0.00 | 51 | 1012.6 |
| 20260507190309 | 58 | 326 | 3.5 | 12.2 | 0.00 | 0.00 | 0.00 | 47 | 1012.6 |
| 20260507185809 | 58 | 267 | 2.6 | 13.9 | 0.00 | 0.00 | 0.00 | 50 | 1012.7 |
| 20260507185309 | 58 | 308 | 4.3 | 13.9 | 0.00 | 0.00 | 0.00 | 46 | 1012.7 |
| 20260507184808 | 58 | 5 | 1.7 | 10.4 | 0.00 | 0.00 | 0.00 | 50 | 1012.6 |
| 20260507184309 | 58 | 12 | 1.7 | 12.2 | 0.00 | 0.00 | 0.00 | 52 | 1012.8 |
| 20260507183808 | 58 | 146 | 0.9 | 12.2 | 0.00 | 0.00 | 0.00 | 48 | 1012.8 |
| 20260507183308 | 58 | 355 | 4.3 | 10.4 | 0.00 | 0.00 | 0.00 | 48 | 1012.8 |
| 20260507182808 | 57 | 5 | 2.6 | 9.6 | 0.00 | 0.00 | 0.00 | 47 | 1012.8 |
| 20260507182308 | 58 | 44 | 2.6 | 11.3 | 0.00 | 0.00 | 0.00 | 49 | 1012.9 |
| 20260507181808 | 58 | 13 | 5.2 | 13.9 | 0.00 | 0.00 | 0.00 | 48 | 1012.9 |
| 20260507181308 | 57 | 31 | 4.3 | 13.9 | 0.00 | 0.00 | 0.00 | 47 | 1012.8 |
| 20260507180307 | 57 | 326 | 8.7 | 16.5 | 0.00 | 0.00 | 0.00 | 47 | 1013.0 |
| 20260507175807 | 57 | 317 | 7.8 | 14.8 | 0.00 | 0.00 | 0.00 | 47 | 1013.1 |
| 20260507175307 | 57 | 17 | 7.8 | 14.8 | 0.00 | 0.00 | 0.00 | 46 | 1013.3 |
| 20260507174807 | 57 | 310 | 7.8 | 13.0 | 0.00 | 0.00 | 0.00 | 52 | 1013.3 |
| 20260507174306 | 57 | 355 | 5.2 | 14.8 | 0.00 | 0.00 | 0.00 | 50 | 1013.3 |
| 20260507173306 | 56 | 332 | 5.2 | 18.2 | 0.00 | 0.00 | 0.00 | 50 | 1013.3 |
| 20260507172806 | 56 | 341 | 4.3 | 18.2 | 0.00 | 0.00 | 0.00 | 53 | 1013.2 |
| 20260507172308 | 56 | 304 | 12.2 | 18.2 | 0.00 | 0.00 | 0.00 | 50 | 1013.2 |
| 20260507171806 | 56 | 336 | 3.5 | 13.9 | 0.00 | 0.00 | 0.00 | 49 | 1013.3 |
| 20260507171306 | 56 | 15 | 7.8 | 13.9 | 0.00 | 0.00 | 0.00 | 48 | 1013.3 |
| 20260507170806 | 56 | 360 | 7.0 | 13.9 | 0.00 | 0.00 | 0.00 | 47 | 1013.3 |
| 20260507165805 | 56 | 334 | 3.5 | 12.2 | 0.00 | 0.00 | 0.00 | 56 | 1013.4 |
| 20260507164805 | 55 | 329 | 7.8 | 13.9 | 0.00 | 0.00 | 0.00 | 52 | 1013.4 |
| 20260507164305 | 55 | 346 | 4.3 | 13.9 | 0.00 | 0.00 | 0.00 | 53 | 1013.5 |
| 20260507163805 | 56 | 349 | 13.0 | 13.0 | 0.00 | 0.00 | 0.00 | 54 | 1013.6 |
| 20260507163304 | 55 | 257 | 6.1 | 12.2 | 0.00 | 0.00 | 0.00 | 51 | 1013.7 |
| 20260507162804 | 55 | 242 | 3.5 | 11.3 | 0.00 | 0.00 | 0.00 | 60 | 1013.8 |
| 20260507162307 | 54 | 346 | 9.6 | 13.0 | 0.00 | 0.00 | 0.00 | 54 | 1013.8 |
| 20260507161804 | 54 | 275 | 5.2 | 13.0 | 0.00 | 0.00 | 0.00 | 54 | 1013.8 |
| 20260507161304 | 54 | 284 | 7.0 | 13.0 | 0.00 | 0.00 | 0.00 | 52 | 1013.7 |
| 20260507160303 | 54 | 272 | 4.3 | 13.0 | 0.00 | 0.00 | 0.00 | 56 | 1013.7 |
| 20260507155804 | 54 | 290 | 4.3 | 10.4 | 0.00 | 0.00 | 0.00 | 54 | 1013.8 |
| 20260507154803 | 53 | 273 | 1.7 | 13.9 | 0.00 | 0.00 | 0.00 | 52 | 1013.8 |
| 20260507154303 | 53 | 323 | 0.9 | 13.9 | 0.00 | 0.00 | 0.00 | 59 | 1013.9 |
| 20260507153833 | 53 | 275 | 7.8 | 11.3 | 0.00 | 0.00 | 0.00 | 53 | 1013.9 |
| 20260507153333 | 53 | 292 | 1.7 | 11.3 | 0.00 | 0.00 | 0.00 | 53 | 1013.9 |
| 20260507152832 | 52 | 311 | 5.2 | 11.3 | 0.00 | 0.00 | 0.00 | 55 | 1013.9 |
| 20260507152332 | 53 | 301 | 5.2 | 11.3 | 0.00 | 0.00 | 0.00 | 51 | 1013.9 |
| 20260507151832 | 53 | 209 | 1.7 | 11.3 | 0.00 | 0.00 | 0.00 | 53 | 1013.8 |
| 20260507151332 | 52 | 219 | 3.5 | 10.4 | 0.00 | 0.00 | 0.00 | 57 | 1013.7 |
| 20260507150832 | 52 | 265 | 6.1 | 9.6 | 0.00 | 0.00 | 0.00 | 54 | 1013.6 |
| 20260507145832 | 52 | 355 | 3.5 | 10.4 | 0.00 | 0.00 | 0.00 | 58 | 1013.7 |
| 20260507145331 | 52 | 313 | 0.9 | 12.2 | 0.00 | 0.00 | 0.00 | 55 | 1013.6 |
| 20260507144831 | 51 | 299 | 6.1 | 12.2 | 0.00 | 0.00 | 0.00 | 59 | 1013.7 |
| 20260507144331 | 51 | 38 | 1.7 | 12.2 | 0.00 | 0.00 | 0.00 | 54 | 1013.7 |
| 20260507143831 | 51 | 306 | 4.3 | 12.2 | 0.00 | 0.00 | 0.00 | 55 | 1013.7 |
| 20260507143331 | 51 | 301 | 7.8 | 10.4 | 0.00 | 0.00 | 0.00 | 56 | 1013.7 |
| 20260507142831 | 51 | 278 | 2.6 | 10.4 | 0.00 | 0.00 | 0.00 | 53 | 1013.7 |
| 20260507142331 | 51 | 200 | 2.6 | 12.2 | 0.00 | 0.00 | 0.00 | 56 | 1013.7 |
| 20260507141830 | 50 | 288 | 8.7 | 12.2 | 0.00 | 0.00 | 0.00 | 55 | 1013.6 |
| 20260507141330 | 51 | 18 | 2.6 | 11.3 | 0.00 | 0.00 | 0.00 | 59 | 1013.7 |
| 20260507140830 | 50 | 327 | 2.6 | 11.3 | 0.00 | 0.00 | 0.00 | 57 | 1013.6 |
| 20260507135830 | 50 | 269 | 2.6 | 11.3 | 0.00 | 0.00 | 0.00 | 54 | 1013.6 |
| 20260507135329 | 50 | 355 | 3.5 | 10.4 | 0.00 | 0.00 | 0.00 | 58 | 1013.7 |
| 20260507134329 | 49 | 343 | 2.6 | 11.3 | 0.00 | 0.00 | 0.00 | 60 | 1013.7 |
| 20260507133830 | 49 | 209 | 1.7 | 9.6 | 0.00 | 0.00 | 0.00 | 59 | 1013.6 |
| 20260507133329 | 48 | 5 | 3.5 | 9.6 | 0.00 | 0.00 | 0.00 | 60 | 1013.7 |
| 20260507132829 | 48 | 71 | 1.7 | 9.6 | 0.00 | 0.00 | 0.00 | 62 | 1013.7 |
| 20260507132329 | 48 | 335 | 1.7 | 9.6 | 0.00 | 0.00 | 0.00 | 67 | 1013.7 |
| 20260507131829 | 47 | 355 | 1.7 | 6.1 | 0.00 | 0.00 | 0.00 | 65 | 1013.7 |
| 20260507131328 | 47 | 14 | 1.7 | 6.1 | 0.00 | 0.00 | 0.00 | 65 | 1013.7 |
| 20260507125828 | 47 | 313 | 0.9 | 7.0 | 0.00 | 0.00 | 0.00 | 67 | 1013.5 |
| 20260507125328 | 47 | 297 | 0.9 | 7.0 | 0.00 | 0.00 | 0.00 | 68 | 1013.5 |
| 20260507124827 | 46 | 303 | 1.7 | 6.1 | 0.00 | 0.00 | 0.00 | 71 | 1013.6 |
| 20260507123827 | 45 | 329 | 1.7 | 5.2 | 0.00 | 0.00 | 0.00 | 75 | 1013.5 |
| 20260507122827 | 45 | 286 | 2.6 | 4.3 | 0.00 | 0.00 | 0.00 | 76 | 1013.6 |
| 20260507122327 | 45 | 338 | 0.0 | 4.3 | 0.00 | 0.00 | 0.00 | 78 | 1013.6 |
| 20260507121827 | 44 | 338 | 0.9 | 4.3 | 0.00 | 0.00 | 0.00 | 80 | 1013.6 |
| 20260507120826 | 43 | 213 | 0.9 | 4.3 | 0.00 | 0.00 | 0.00 | 81 | 1013.6 |
| 20260507120326 | 43 | 319 | 0.0 | 4.3 | 0.00 | 0.00 | 0.00 | 82 | 1013.6 |
| 20260507115826 | 42 | 303 | 0.0 | 3.5 | 0.00 | 0.00 | 0.00 | 82 | 1013.8 |
| 20260507115326 | 42 | 338 | 0.9 | 2.6 | 0.00 | 0.00 | 0.00 | 85 | 1013.8 |
| 20260507114826 | 41 | 340 | 0.9 | 1.7 | 0.00 | 0.00 | 0.00 | 88 | 1013.8 |
| 20260507114326 | 41 | 168 | 0.0 | 0.9 | 0.00 | 0.00 | 0.00 | 89 | 1013.8 |
| 20260507113826 | 40 | 168 | 0.9 | 0.9 | 0.00 | 0.00 | 0.00 | 91 | 1013.8 |
| 20260507113325 | 39 | 185 | 0.0 | 0.9 | 0.00 | 0.00 | 0.00 | 92 | 1013.7 |
| 20260507112825 | 39 | 292 | 0.9 | 0.9 | 0.00 | 0.00 | 0.00 | 93 | 1013.6 |
| 20260507111825 | 37 | 339 | 0.0 | 0.0 | 0.00 | 0.00 | 0.00 | 94 | 1013.5 |
| 20260507111325 | 36 | 340 | 0.0 | 0.0 | 0.00 | 0.00 | 0.00 | 94 | 1013.5 |
| 20260507110824 | 36 | 340 | 0.0 | 0.0 | 0.00 | 0.00 | 0.00 | 93 | 1013.5 |
| 20260507110324 | 36 | 340 | 0.0 | 0.0 | 0.00 | 0.00 | 0.00 | 93 | 1013.4 |
| 20260507105824 | 36 | 55 | 0.0 | 0.0 | 0.00 | 0.00 | 0.00 | 93 | 1013.4 |
| 20260507105324 | 36 | 24 | 0.0 | 0.0 | 0.00 | 0.00 | 0.00 | 93 | 1013.4 |
| 20260507104824 | 36 | 294 | 0.0 | 0.0 | 0.00 | 0.00 | 0.00 | 93 | 1013.2 |
| 20260507104324 | 36 | 264 | 0.0 | 0.0 | 0.00 | 0.00 | 0.00 | 93 | 1013.0 |
| 20260507103823 | 36 | 264 | 0.0 | 0.0 | 0.00 | 0.00 | 0.00 | 93 | 1013.1 |
| 20260507103323 | 36 | 264 | 0.0 | 0.0 | 0.00 | 0.00 | 0.00 | 93 | 1012.9 |
| 20260507102823 | 36 | 264 | 0.0 | 0.0 | 0.00 | 0.00 | 0.00 | 94 | 1012.9 |
| 20260507102323 | 36 | 264 | 0.0 | 0.0 | 0.00 | 0.00 | 0.00 | 94 | 1012.9 |
| 20260507101823 | 36 | 264 | 0.0 | 0.0 | 0.00 | 0.00 | 0.00 | 94 | 1012.7 |
| 20260507101323 | 36 | 264 | 0.0 | 0.0 | 0.00 | 0.00 | 0.00 | 94 | 1012.8 |
| 20260507100823 | 36 | 264 | 0.0 | 0.9 | 0.00 | 0.00 | 0.00 | 93 | 1012.8 |
| 20260507095822 | 36 | 264 | 0.0 | 0.9 | 0.00 | 0.00 | 0.00 | 93 | 1012.8 |
| 20260507095322 | 36 | 264 | 0.0 | 1.7 | 0.00 | 0.00 | 0.00 | 94 | 1012.8 |
| 20260507094822 | 36 | 264 | 0.0 | 1.7 | 0.00 | 0.00 | 0.00 | 93 | 1012.9 |
| 20260507094322 | 36 | 261 | 0.9 | 0.9 | 0.00 | 0.00 | 0.00 | 93 | 1013.0 |
| 20260507093822 | 36 | 261 | 0.0 | 0.0 | 0.00 | 0.00 | 0.00 | 93 | 1012.9 |
| 20260507092821 | 37 | 261 | 0.0 | 0.9 | 0.00 | 0.00 | 0.00 | 93 | 1013.1 |
| 20260507091821 | 37 | 261 | 0.0 | 0.9 | 0.00 | 0.00 | 0.00 | 93 | 1012.8 |
| 20260507091321 | 37 | 261 | 0.0 | 0.9 | 0.00 | 0.00 | 0.00 | 94 | 1012.7 |
| 20260507090821 | 37 | 261 | 0.0 | 0.9 | 0.00 | 0.00 | 0.00 | 94 | 1012.7 |
| 20260507090321 | 37 | 261 | 0.0 | 0.9 | 0.00 | 0.00 | 0.00 | 94 | 1012.7 |
| 20260507085820 | 37 | 261 | 0.0 | 0.0 | 0.00 | 0.00 | 0.00 | 94 | 1012.8 |
| 20260507085321 | 37 | 261 | 0.0 | 0.0 | 0.00 | 0.00 | 0.00 | 94 | 1012.8 |
| 20260507084820 | 37 | 261 | 0.0 | 0.0 | 0.00 | 0.00 | 0.00 | 94 | 1012.7 |
| 20260507084320 | 37 | 261 | 0.0 | 0.0 | 0.00 | 0.00 | 0.00 | 94 | 1012.6 |
| 20260507083820 | 37 | 261 | 0.0 | 0.9 | 0.00 | 0.00 | 0.00 | 94 | 1012.6 |
| 20260507083320 | 37 | 261 | 0.0 | 0.9 | 0.00 | 0.00 | 0.00 | 94 | 1012.5 |
| 20260507082819 | 37 | 261 | 0.0 | 0.9 | 0.00 | 0.00 | 0.00 | 94 | 1012.4 |
| 20260507082320 | 37 | 261 | 0.0 | 0.9 | 0.00 | 0.01 | 0.00 | 94 | 1012.5 |
| 20260507081819 | 37 | 261 | 0.0 | 0.0 | 0.00 | 0.01 | 0.00 | 94 | 1012.5 |
| 20260507081319 | 37 | 261 | 0.0 | 1.7 | 0.00 | 0.01 | 0.00 | 94 | 1012.6 |
| 20260507080319 | 38 | 290 | 0.0 | 1.7 | 0.00 | 0.01 | 0.00 | 94 | 1012.7 |
| 20260507075818 | 38 | 289 | 0.0 | 1.7 | 0.00 | 0.01 | 0.00 | 94 | 1012.6 |
| 20260507074818 | 38 | 289 | 0.0 | 0.9 | 0.00 | 0.02 | 0.00 | 94 | 1012.7 |
| 20260507073818 | 38 | 290 | 0.0 | 0.9 | 0.00 | 0.02 | 0.00 | 94 | 1012.5 |
| 20260507073318 | 38 | 289 | 0.0 | 0.9 | 0.00 | 0.03 | 0.00 | 94 | 1012.6 |
| 20260507072818 | 38 | 289 | 0.0 | 0.0 | 0.00 | 0.03 | 0.00 | 94 | 1012.5 |
| 20260507071818 | 38 | 290 | 0.0 | 0.0 | 0.00 | 0.04 | 0.00 | 94 | 1012.5 |
| 20260507071317 | 38 | 289 | 0.0 | 0.0 | 0.00 | 0.04 | 0.00 | 94 | 1012.5 |
| 20260507070317 | 38 | 289 | 0.0 | 0.0 | 0.00 | 0.04 | 0.00 | 94 | 1012.6 |
| 20260507065817 | 38 | 289 | 0.0 | 0.0 | 0.00 | 0.04 | 0.00 | 94 | 1012.5 |
| 20260507065317 | 38 | 289 | 0.0 | 0.0 | 0.00 | 0.04 | 0.00 | 94 | 1012.6 |
| 20260507064816 | 38 | 289 | 0.0 | 0.0 | 0.00 | 0.04 | 0.00 | 94 | 1012.6 |
| 20260507064316 | 39 | 290 | 0.0 | 0.0 | 0.00 | 0.04 | 0.00 | 94 | 1012.7 |
| 20260507063816 | 39 | 289 | 0.0 | 0.0 | 0.00 | 0.04 | 0.00 | 94 | 1012.8 |
| 20260507063316 | 39 | 289 | 0.0 | 0.0 | 0.00 | 0.04 | 0.00 | 94 | 1012.8 |
| 20260507062816 | 39 | 290 | 0.0 | 0.0 | 0.00 | 0.05 | 0.00 | 94 | 1012.9 |
| 20260507061815 | 39 | 290 | 0.0 | 0.0 | 0.00 | 0.05 | 0.00 | 94 | 1012.8 |
| 20260507061315 | 39 | 289 | 0.0 | 0.0 | 0.00 | 0.06 | 0.00 | 94 | 1012.9 |
| 20260507060815 | 39 | 289 | 0.0 | 0.0 | 0.00 | 0.06 | 0.00 | 94 | 1012.8 |
| 20260507060315 | 39 | 290 | 0.0 | 0.0 | 0.00 | 0.07 | 0.00 | 94 | 1012.9 |
| 20260507055815 | 39 | 289 | 0.0 | 0.0 | 0.00 | 0.08 | 0.00 | 94 | 1012.8 |
| 20260507054814 | 39 | 290 | 0.0 | 0.0 | 0.00 | 0.09 | 0.00 | 94 | 1012.8 |
| 20260507054314 | 40 | 289 | 0.0 | 0.0 | 0.00 | 0.09 | 0.00 | 94 | 1012.8 |
| 20260507053815 | 40 | 289 | 0.0 | 0.0 | 0.00 | 0.10 | 0.00 | 94 | 1012.8 |
| 20260507053314 | 40 | 290 | 0.0 | 0.0 | 0.00 | 0.10 | 0.00 | 94 | 1012.9 |
| 20260507052814 | 40 | 289 | 0.0 | 0.0 | 0.00 | 0.11 | 0.00 | 94 | 1012.8 |
| 20260507052314 | 40 | 289 | 0.0 | 0.0 | 0.00 | 0.12 | 0.00 | 94 | 1012.8 |
| 20260507051814 | 40 | 290 | 0.0 | 0.0 | 0.00 | 0.13 | 0.00 | 94 | 1012.9 |
| 20260507051313 | 40 | 289 | 0.0 | 0.0 | 0.00 | 0.15 | 0.00 | 94 | 1013.0 |
| 20260507050813 | 40 | 289 | 0.0 | 0.0 | 0.00 | 0.16 | 0.00 | 94 | 1012.9 |
| 20260507050313 | 40 | 289 | 0.0 | 0.0 | 0.00 | 0.18 | 0.00 | 93 | 1013.0 |
| 20260507045813 | 40 | 289 | 0.0 | 0.0 | 0.00 | 0.19 | 0.00 | 94 | 1013.1 |
| 20260507045313 | 40 | 289 | 0.0 | 0.0 | 0.00 | 0.21 | 0.00 | 93 | 1013.0 |
| 20260507043813 | 41 | 290 | 0.0 | 0.0 | 0.00 | 0.28 | 0.00 | 93 | 1012.8 |
| 20260507043312 | 41 | 290 | 0.0 | 0.0 | 0.00 | 0.30 | 0.00 | 93 | 1012.8 |
| 20260507042312 | 41 | 289 | 0.0 | 0.0 | 0.00 | 0.31 | 0.00 | 93 | 1012.9 |
| 20260507041812 | 41 | 289 | 0.0 | 0.0 | 0.00 | 0.31 | 0.00 | 93 | 1012.9 |
| 20260507041312 | 41 | 289 | 0.0 | 0.0 | 0.00 | 0.31 | 0.00 | 93 | 1012.9 |
| 20260507040811 | 41 | 289 | 0.0 | 0.0 | 0.00 | 0.32 | 0.00 | 93 | 1012.9 |
| 20260507040311 | 41 | 290 | 0.0 | 0.0 | 0.00 | 0.33 | 0.00 | 93 | 1012.8 |
| 20260507035812 | 41 | 289 | 0.0 | 0.0 | 0.00 | 0.35 | 0.33 | 92 | 1012.8 |
| 20260507034811 | 42 | 289 | 0.0 | 0.0 | 0.00 | 0.42 | 0.33 | 92 | 1012.7 |
| 20260507033811 | 42 | 289 | 0.0 | 0.0 | 0.00 | 0.48 | 0.33 | 92 | 1012.7 |